User: anonymous   Login
Location: Writing-on-Stone Provincial Park
(49.0825°N, 111.6163°W)
Time: 10:05:43
(UTC-06:00)
Language:

BREEZE-M DEB (TANK) - Orbit

View from above orbital plane
View from above orbital plane
View from above satellite
View from above satellite

Ground track
Ground track

The orbit data is extracted from the following two-line orbital elements,

1 29649U 06056B   17179.54009260 -.00001470 +00000-0 -35448-3 0  9999
2 29649 049.4846 225.4659 5364757 168.4538 211.9276 04.99630697188358
Epoch (UTC): 28 June 2017 12:57:44
Eccentricity: 0.5364757
inclination: 49.4846°
perigee height: 321 km
apogee height: 15829 km
right ascension of ascending node: 225.4659°
argument of perigee: 168.4538°
revolutions per day: 4.99630697
mean anomaly at epoch: 211.9276°
orbit number at epoch: 18835

The dashed part of the orbit path shows where the satellite is in the earth's shadow,  

DLR